Regional Weather Roundup
Issued by NWS Albany, NY

Home | Current Version | Previous Version | Graphics & Text | Print | Product List | Glossary On
Versions: 1 2 3 4 5 6 7 8 9 10 11 12 13 14 15 16 17 18 19 20 21 22 23 24 25 26 27 28 29 30 31 32 33 34 35 36 37 38 39 40 41 42 43 44 45 46 47 48 49 50
000
ASUS41 KALY 281310
RWRALY

NEW YORK STATE HOURLY WEATHER ROUNDUP
NATIONAL WEATHER SERVICE ALBANY NY
900 AM EDT SAT MAR 28 2015

NOTE: "FAIR" INDICATES FEW OR NO CLOUDS BELOW 12,000 FEET WITH NO
SIGNIFICANT WEATHER AND/OR NO OBSTRUCTIONS TO VISIBILITY.

NYZ032-033-038>043-046>054-057>066-NYZ062>081-281400-
EAST


CITY           SKY/WX    TMP DP  RH WIND       PRES   REMARKS
ALBANY         FLURRIES  27  20  75 NW12      29.90R WCI  17
GLENS FALLS    CLOUDY    26  14  60 NE16G23   29.91R WCI  14
POUGHKEEPSIE   CLOUDY    32  22  66 N9        29.83R WCI  24
NEWBURGH       PTSUNNY   32  21  64 N9G18     29.83R WCI  24
MONTGOMERY     CLOUDY    31  18  58 NW10      29.82R WCI  22
WHITE PLAINS   LGT SNOW  31  24  75 N20G28    29.77S WCI  19
ISLIP          LGT SNOW  32  28  85 NW16      29.75R VSB 1   WCI  21
NEW YORK CITY  CLOUDY    35  20  54 NW14G23   29.80S WCI  26
CENTRAL PARK   CLOUDY    33  17  51 VRB7      29.83R WCI  27
$$

NYZ005>009-017-018-044>046-055-056-281400-
CENTRAL


CITY           SKY/WX    TMP DP  RH WIND       PRES   REMARKS
FULTON         CLOUDY    16   4  59 N12       30.06R WCI   3
SYRACUSE       CLOUDY    18   6  59 NW14      30.04R WCI   4
ROME           FLURRIES  18  10  71 NW14      30.00S WCI   4
ELMIRA         CLOUDY    19  11  70 NE8       29.99R WCI   9
BINGHAMTON     CLOUDY    18  10  71 NW13      29.88R WCI   5
MONTICELLO     CLOUDY    23  18  80 N16G22    29.82S WCI  10
$$

NYZ026>034-041>043-281400-
NORTH


CITY           SKY/WX    TMP DP  RH WIND       PRES   REMARKS
WATERTOWN      PTSUNNY   15   2  56 N12       30.08R WCI   2
FORT DRUM      NOT AVBL
MASSENA        CLOUDY    15   3  59 NW7       30.08R WCI   5
SARANAC LAKE   LGT SNOW  15  10  80 N6        29.86R VSB 1   WCI   6
PLATTSBURGH    CLOUDY    19  10  68 N17       30.01R WCI   4
$$

NYZ001>004-010>016-019>021-281400-
WEST


CITY           SKY/WX    TMP DP  RH WIND       PRES   REMARKS
NIAGARA FALLS  PTSUNNY   17   5  59 N13       30.13R WCI   4
BUFFALO        PTSUNNY   17   6  62 N13       30.11R WCI   4
DUNKIRK        CLOUDY    14   9  80 N6        30.14R WCI   5
JAMESTOWN      CLOUDY    12   9  85 N10       30.01R WCI  -1
WELLSVILLE     LGT SNOW  14   9  80 N10G18    29.94R WCI   1
ROCHESTER      LGT SNOW  18   8  65 N15       30.09R WCI   4
PENN YAN       LGT SNOW  18  11  74 NW10      30.02R WCI   6
$$

             KEY
       WCI = WIND CHILL INDEX
       VSB = VISIBILITY
       HX  = HEAT INDEX
$$



USA.gov is the U.S. government's official web portal to all federal, state and local government web resources and services.